(154047) = 2000 WS139 = 2002 CG116

Discovered at Desert Eagle on 2002-02-13 by W. K. Y. Yeung.

Orbit

Orbit type: Main Belt

Note: WebGL enabled browser required.

epoch2023-09-13.0
epoch JD2460200.5
perihelion date2019-11-15.69694
perihelion JD2458803.19694
argument of perihelion (°)26.69531
ascending node (°)311.35772
inclination (°)0.99649
eccentricity0.0172618
perihelion distance (AU)2.8780218
Tisserand w.r.t. Jupiter3.3
ΔV w.r.t. Earth (km/sec)10.5
semimajor axis (AU)2.9285744
mean anomaly (°)274.79578
mean daily motion (°/day)0.19666160
aphelion distance (AU)2.979
period (years)5.01
P-vector [x]0.92747920
P-vector [y]-0.34605627
P-vector [z]-0.14151820
Q-vector [x]0.37364682
Q-vector [y]0.84473000
Q-vector [z]0.38317004
absolute magnitude15.85
phase slope0.15
uncertainty0
referenceMPEC 2023-Q78
observations used595
oppositions18
arc length (days)8248
first opposition used2000
last opposition used2023
residual rms (arc-secs)0.75
perturbers coarse indicatorM-v
perturbers precise indicator003Ek
first observation date used2000-11-21.0
last observation date used2023-06-22.0
computer nameMPCLINUX
JD of orbit computation2456966.927833
perihelion JD uncertainty (days)4.8905E-04
argument of perihelion uncertainty (°)2.1569E-04
ascending node uncertainty (°)1.9188E-04
inclination uncertainty (°)4.0274E-06
eccentricity uncertainty 4.0080E-08
perihelion distance uncertainty (AU)1.2899E-07
Minimum Orbit Intersection Distances (in AU)
for orbit epoch: 2460200.5, reference: E2023-SM6
Mercury2.44395
Venus2.15232
Earth1.86689
Mars1.3159
Jupiter2.06659
Saturn6.10511
Uranus15.4685
Neptune26.9435

Observations

614 total observations over interval: 2000 11 21.32070 – 2023 06 22.312617
These data are available for download (format description).

Date (UT) J2000 RA J2000 Dec Magn Location Ref
2000 11 21.32070 03 31 25.48 +20 34 19.1 19.1   704 – Lincoln Laboratory ETS, New Mexico MPS 23010
2000 11 21.33532 03 31 24.76 +20 34 17.1 18.9   704 – Lincoln Laboratory ETS, New Mexico MPS 23010
2000 11 21.34992 03 31 23.95 +20 34 15.1 18.5   704 – Lincoln Laboratory ETS, New Mexico MPS 23010
2000 11 24.23245 03 28 51.14 +20 24 49.8 19.9 R 699 – Lowell Observatory-LONEOS MPS 23010
2000 11 24.25585 03 28 49.76 +20 24 44.3   699 – Lowell Observatory-LONEOS MPS 23010
2000 11 24.27934 03 28 48.54 +20 24 41.1   699 – Lowell Observatory-LONEOS MPS 23010
2000 11 24.30288 03 28 47.20 +20 24 36.4   699 – Lowell Observatory-LONEOS MPS 23010
2002 02 07.31765 09 48 19.63 +12 57 52.3 19.6   704 – Lincoln Laboratory ETS, New Mexico MPS 50294
2002 02 07.32156 09 48 19.41 +12 57 52.5 20.2 V 291 – LPL/Spacewatch II MPS 55481
2002 02 07.34206 09 48 18.34 +12 57 57.5 20.1 V 291 – LPL/Spacewatch II MPS 55481
2002 02 07.36087 09 48 17.36 +12 58 03.3 19.9   704 – Lincoln Laboratory ETS, New Mexico MPS 50294
2002 02 07.36368 09 48 17.24 +12 58 02.6 20.2 V 291 – LPL/Spacewatch II MPS 55481
2002 02 07.37546 09 48 16.66 +12 58 05.9 20.1   704 – Lincoln Laboratory ETS, New Mexico MPS 50294
2002 02 11.30604 09 44 58.30 +13 13 53.2 19.6   704 – Lincoln Laboratory ETS, New Mexico MPS 50294
2002 02 11.32028 09 44 57.53 +13 13 56.3 19.7   704 – Lincoln Laboratory ETS, New Mexico MPS 50294
2002 02 11.33452 09 44 56.80 +13 13 59.8 19.9   704 – Lincoln Laboratory ETS, New Mexico MPS 50294
2002 02 11.34876 09 44 56.06 +13 14 03.4 20.4   704 – Lincoln Laboratory ETS, New Mexico MPS 50294
2002 02 11.36303 09 44 55.31 +13 14 06.6 19.7   704 – Lincoln Laboratory ETS, New Mexico MPS 50294
2002 02 13.20936 09 43 21.54 +13 21 31.7 20.0 V 333 – Desert Eagle Observatory MPS 50294
2002 02 13.25534 09 43 19.13 +13 21 43.8 20.3 V 333 – Desert Eagle Observatory MPS 50294
2002 02 15.19438 09 41 40.36 +13 29 26.8 20.6 V 333 – Desert Eagle Observatory MPS 50294
2002 02 15.24653 09 41 37.67 +13 29 39.3 20.3 V 333 – Desert Eagle Observatory MPS 50294
2002 02 15.30447 09 41 34.61 +13 29 53.4 19.9 V 333 – Desert Eagle Observatory MPS 50294
2002 03 05.10435 09 27 41.33 +14 33 32.6 21.3 V 691 – Steward Observatory, Kitt Peak-Spacewatch MPS 52683
2002 03 05.12652 09 27 40.42 +14 33 37.5 20.5 V 691 – Steward Observatory, Kitt Peak-Spacewatch MPS 52684
2002 03 05.14853 09 27 39.49 +14 33 41.5 20.3 V 691 – Steward Observatory, Kitt Peak-Spacewatch MPS 52684
2002 03 05.26170 09 27 34.75 +14 34 02.9 20 R 644 – Palomar Mountain/NEAT MPS 126742
2002 03 05.27365 09 27 34.30 +14 34 04.7   644 – Palomar Mountain/NEAT MPS 126742
2002 03 12.19502 09 23 22.82 +14 52 30.8 20.6 V 333 – Desert Eagle Observatory MPS 52684
2002 03 12.23744 09 23 21.18 +14 52 38.7 20.4 V 333 – Desert Eagle Observatory MPS 52684
2004 08 21.54218 21 28 20.01 -14 36 45.9 19.4 R E12 – Siding Spring Survey MPS 120442
2004 08 21.55734 21 28 19.25 -14 36 49.4 19.3 R E12 – Siding Spring Survey MPS 120442
2004 08 21.57245 21 28 18.49 -14 36 52.8 19.9 R E12 – Siding Spring Survey MPS 120442
2004 08 21.58756 21 28 17.75 -14 36 55.8 19.2 R E12 – Siding Spring Survey MPS 120442
2005 10 26.33251 03 49 23.44 +21 32 18.3 20.3 V 691 – Steward Observatory, Kitt Peak-Spacewatch MPS 146000
2005 10 26.34978 03 49 22.70 +21 32 16.5 20.1 V 691 – Steward Observatory, Kitt Peak-Spacewatch MPS 146000
2005 10 26.36705 03 49 21.95 +21 32 14.5 20.2 V 691 – Steward Observatory, Kitt Peak-Spacewatch MPS 146000
2005 10 27.39403 03 48 39.45 +21 30 16.8 20.1 V G96 – Mt. Lemmon Survey MPS 146000
2005 10 27.40176 03 48 39.13 +21 30 15.6 19.9 V G96 – Mt. Lemmon Survey MPS 146000
2005 10 27.40942 03 48 38.80 +21 30 14.9 20.1 V G96 – Mt. Lemmon Survey MPS 146000
2005 10 27.41708 03 48 38.44 +21 30 13.9 19.9 V G96 – Mt. Lemmon Survey MPS 146000
2005 10 30.34122 03 46 31.21 +21 24 12.0 20.2 V 691 – Steward Observatory, Kitt Peak-Spacewatch MPS 147412
2005 10 30.35846 03 46 30.39 +21 24 09.7 20.2 V 691 – Steward Observatory, Kitt Peak-Spacewatch MPS 147412
2005 10 30.37582 03 46 29.59 +21 24 07.5 20.2 V 691 – Steward Observatory, Kitt Peak-Spacewatch MPS 147412
2005 11 01.36055 03 44 58.16 +21 19 38.5 20.0 V 691 – Steward Observatory, Kitt Peak-Spacewatch MPS 147412
2005 11 01.37805 03 44 57.31 +21 19 36.0 20.0 V 691 – Steward Observatory, Kitt Peak-Spacewatch MPS 147412
2005 11 01.39567 03 44 56.46 +21 19 33.4 20.1 V 691 – Steward Observatory, Kitt Peak-Spacewatch MPS 147412
2005 12 05.24299 03 16 10.48 +19 35 47.8 19.8 V G96 – Mt. Lemmon Survey MPS 153612
2005 12 05.25018 03 16 10.16 +19 35 46.4 19.9 V G96 – Mt. Lemmon Survey MPS 153612
2005 12 05.25735 03 16 09.84 +19 35 45.2 19.7 V G96 – Mt. Lemmon Survey MPS 153612
2005 12 05.26454 03 16 09.51 +19 35 43.6 19.8 V G96 – Mt. Lemmon Survey MPS 153612
2005 12 08.08435 03 14 11.05 +19 27 09.6 20.2 V 691 – Steward Observatory, Kitt Peak-Spacewatch MPS 153612
2005 12 08.10542 03 14 10.19 +19 27 06.0 20.2 V 691 – Steward Observatory, Kitt Peak-Spacewatch MPS 153612
2005 12 08.12643 03 14 09.32 +19 27 02.3 20.1 V 691 – Steward Observatory, Kitt Peak-Spacewatch MPS 153612
2005 12 10.07649 03 12 52.75 +19 21 21.5 20.3 V 691 – Steward Observatory, Kitt Peak-Spacewatch MPS 155255
2005 12 10.08670 03 12 52.33 +19 21 20.0 20.3 V 691 – Steward Observatory, Kitt Peak-Spacewatch MPS 155255
2005 12 10.09680 03 12 51.94 +19 21 18.0 20.4 V 691 – Steward Observatory, Kitt Peak-Spacewatch MPS 155255
2007 02 06.33802 09 44 51.39 +13 17 21.1 19.8 V G96 – Mt. Lemmon Survey MPS 198647
2007 02 06.34532 09 44 51.03 +13 17 22.8 20.1 V G96 – Mt. Lemmon Survey MPS 198647
2007 02 06.35260 09 44 50.64 +13 17 24.4 19.7 V G96 – Mt. Lemmon Survey MPS 198647
2007 02 06.35990 09 44 50.28 +13 17 26.5 19.5 V G96 – Mt. Lemmon Survey MPS 198647
2007 02 07.17929 09 44 09.45 +13 20 40.1   691 – Steward Observatory, Kitt Peak-Spacewatch MPS 198647
2007 02 07.19697 09 44 08.53 +13 20 44.3   691 – Steward Observatory, Kitt Peak-Spacewatch MPS 198647
2007 02 07.21467 09 44 07.61 +13 20 48.5   691 – Steward Observatory, Kitt Peak-Spacewatch MPS 198647
2007 02 13.29483 09 38 58.41 +13 44 55.5 19.6 V G96 – Mt. Lemmon Survey MPS 199431
2007 02 13.30371 09 38 57.94 +13 44 57.6 19.8 V G96 – Mt. Lemmon Survey MPS 199431
2007 02 13.31263 09 38 57.48 +13 44 59.7 19.8 V G96 – Mt. Lemmon Survey MPS 199431
2007 02 13.32235 09 38 56.97 +13 45 01.9 19.8 V G96 – Mt. Lemmon Survey MPS 199431
2007 02 23.22115 09 30 42.73 +14 22 46.0 20.0 V G96 – Mt. Lemmon Survey MPS 201458
2007 02 23.22665 09 30 42.48 +14 22 47.3 20.1 V G96 – Mt. Lemmon Survey MPS 201458
2007 02 23.23213 09 30 42.19 +14 22 48.5 20.0 V G96 – Mt. Lemmon Survey MPS 201458
2007 02 23.23762 09 30 41.94 +14 22 49.7 19.9 V G96 – Mt. Lemmon Survey MPS 201458
2007 03 09.27536 09 20 50.42 +15 06 15.9 20.2 V G96 – Mt. Lemmon Survey MPS 202307
2007 03 09.28138 09 20 50.17 +15 06 17.1 20.4 V G96 – Mt. Lemmon Survey MPS 202307
2007 03 09.28741 09 20 49.99 +15 06 17.9 20.3 V G96 – Mt. Lemmon Survey MPS 202307
2007 03 09.29343 09 20 49.77 +15 06 19.1 20.3 V G96 – Mt. Lemmon Survey MPS 202307
2007 04 16.15301 09 14 48.87 +15 28 49.0 21.7 V G96 – Mt. Lemmon Survey MPS 207935
2007 04 16.15955 09 14 49.02 +15 28 48.2 20.9 V G96 – Mt. Lemmon Survey MPS 207935
2007 04 16.16602 09 14 49.09 +15 28 48.0 21.4 V G96 – Mt. Lemmon Survey MPS 207935
2007 04 16.17263 09 14 49.16 +15 28 47.3 20.6 V G96 – Mt. Lemmon Survey MPS 207935
2007 05 16.17538 09 31 28.91 +14 08 47.8   291 – LPL/Spacewatch II MPS 210050
2007 05 16.18314 09 31 29.30 +14 08 45.8   291 – LPL/Spacewatch II MPS 210050
2007 05 16.18729 09 31 29.47 +14 08 45.1   291 – LPL/Spacewatch II MPS 210050
2008 05 26.15820 14 47 45.69 -17 42 06.1 20.4 V 691 – Steward Observatory, Kitt Peak-Spacewatch MPS 250878
2008 05 26.17326 14 47 45.02 -17 42 03.3 20.3 V 691 – Steward Observatory, Kitt Peak-Spacewatch MPS 250878
2008 05 26.18832 14 47 44.37 -17 42 00.7 20.3 V 691 – Steward Observatory, Kitt Peak-Spacewatch MPS 250878
2008 05 30.22920 14 45 01.35 -17 28 45.2 20.5 V 691 – Steward Observatory, Kitt Peak-Spacewatch MPS 250878
2008 05 30.24978 14 45 00.57 -17 28 41.2 20.2 V 691 – Steward Observatory, Kitt Peak-Spacewatch MPS 250878
